Weather reports worldwide

Advertisment
Hoyerswerda, Germany (10495): temperature & dewpoint: 09.12.2019 20:00:00 - 15.12.2019 20:00:00 (CET)Hoyerswerda, Germany (10495): temperature 5cm & temperature -5cm: 09.12.2019 20:00:00 - 15.12.2019 20:00:00 (CET)Hoyerswerda, Germany (10495): temperature -20cm & temperature -100cm: 09.12.2019 20:00:00 - 15.12.2019 20:00:00 (CET)Hoyerswerda, Germany (10495): wind speed & gusts: 09.12.2019 20:00:00 - 15.12.2019 20:00:00 (CET)Hoyerswerda, Germany (10495): wind direction: 09.12.2019 20:00:00 - 15.12.2019 20:00:00 (CET)Hoyerswerda, Germany (10495): reduced air pressure: 09.12.2019 20:00:00 - 15.12.2019 20:00:00 (CET)Hoyerswerda, Germany (10495): visibility: 09.12.2019 20:00:00 - 15.12.2019 20:00:00 (CET)Hoyerswerda, Germany (10495): sunshine duration: 09.12.2019 20:00:00 - 15.12.2019 20:00:00 (CET)Hoyerswerda, Germany (10495): precipitation: 09.12.2019 20:00:00 - 15.12.2019 20:00:00 (CET)
Date & Time tt [°C] td [°C] tt 5cm [°C] tt -5cm [°C] tt -20cm [°C] tt -100cm [°C] ff [km/h] ff [kn] fx [km/h] fx [kn] dd ppp [hPa] vv [km] sd [min] rr [mm]
15.12.2019 20:00:00 7,6 2,2 5,5 4,1 4,8 6,0 13 7 29 15 WSW 1008,3 73 0 0,0
15.12.2019 19:00:00 7,9 3,2 6,0 4,5 4,9 6,0 16 9 36 19 WSW 1007,2 65 0 0,0
15.12.2019 18:00:00 8,5 4,4 6,7 4,9 5,0 6,0 23 12 33 18 WSW 1006,0 75 0 0,0
15.12.2019 17:00:00 8,5 4,3 6,3 5,6 5,0 6,0 14 7 33 18 WSW 1005,0 72 0 0,0
15.12.2019 16:00:00 9,7 5,1 8,3 6,5 4,9 6,0 22 12 41 22 WSW 1004,1 75 0 0,0
15.12.2019 15:00:00 10,5 6,6 9,3 7,0 4,7 6,0 16 9 27 14 WSW 1001,9 75 0 0,0
15.12.2019 14:00:00 9,9 6,9 9,2 7,0 4,4 6,0 14 8 27 15 SSW 1001,6 57 0 0,0
15.12.2019 13:00:00 9,5 6,7 8,2 6,9 4,0 6,0 17 9 40 22 SW 1000,9 52 1 0,1
15.12.2019 12:00:00 9,3 5,8 9,3 6,7 3,5 6,0 19 11 37 20 S 1000,4 75 49 0,0
15.12.2019 11:00:00 7,1 5,0 7,6 4,5 3,3 6,0 23 12 40 21 S 1000,2 49 10 0,5
15.12.2019 10:00:00 5,6 4,4 4,8 3,5 3,2 6,0 18 10 31 17 SSE 1000,7 21 0 0,8
15.12.2019 09:00:00 5,1 3,7 4,2 3,0 3,0 6,0 18 10 30 16 SSE 1001,3 28 0 1,6
15.12.2019 08:00:00 6,1 1,6 4,4 2,3 3,0 6,0 16 9 28 15 S 1002,1 21 0 0,0
15.12.2019 07:00:00 4,8 0,1 3,6 1,8 3,0 6,1 12 7 23 12 SSE 1001,9 43 0 0,0
15.12.2019 06:00:00 4,4 0,2 3,3 1,6 3,1 6,1 13 7 20 11 SSE 1002,6 36 0 0,0
15.12.2019 05:00:00 4,0 0,0 2,7 1,4 3,2 6,1 11 6 17 9 S 1003,1 36 0 0,0
15.12.2019 04:00:00 3,9 0,2 1,8 1,5 3,4 6,1 10 5 23 12 SSW 1003,5 47 0 0,0
15.12.2019 03:00:00 4,1 0,0 1,9 1,8 3,5 6,1 14 8 39 21 SW 1003,6 46 0 0,0
15.12.2019 02:00:00 4,8 -0,5 3,0 2,5 3,5 6,1 26 14 47 25 W 1003,0 55 0 0,0
15.12.2019 01:00:00 5,6 0,6 4,6 3,1 3,5 6,1 37 20 58 32 W 1001,9 61 0 0,0
15.12.2019 00:00:00 5,7 1,9 4,2 3,3 3,5 6,1 36 19 49 26 WSW 1000,3 64 0 0,0
14.12.2019 23:00:00 5,5 3,4 4,0 3,3 3,4 6,1 20 11 54 29 SW 998,7 50 0 0,6
14.12.2019 22:00:00 4,5 3,0 3,5 3,1 3,4 6,1 11 6 53 28 SSW 998,1 62 0 0,8
14.12.2019 21:00:00 6,3 1,4 4,5 2,8 3,4 6,1 27 14 47 25 SW 998,2 29 0 0,0
14.12.2019 20:00:00 5,8 1,2 4,5 2,6 3,4 6,1 18 10 29 16 SW 997,7 63 0 0,0
14.12.2019 19:00:00 5,7 1,8 4,2 2,6 3,5 6,1 26 14 46 25 WSW 997,5 75 0 0,0
14.12.2019 18:00:00 5,4 2,1 3,6 2,6 3,6 6,1 23 12 38 20 WSW 996,3 75 0 0,0
14.12.2019 17:00:00 4,6 2,2 3,6 2,7 3,6 6,1 14 8 31 17 WSW 995,2 57 0 0,0
14.12.2019 16:00:00 4,8 2,0 3,4 3,3 3,6 6,1 26 14 45 24 W 993,7 61 0 0,0
14.12.2019 15:00:00 5,2 2,8 4,2 4,0 3,5 6,1 34 19 62 34 W 992,1 75 0 0,4
14.12.2019 14:00:00 5,1 3,3 4,3 3,8 3,4 6,1 38 21 57 31 W 989,4 12 0 1,2
14.12.2019 13:00:00 3,7 2,5 3,3 3,8 3,3 6,1 16 9 41 22 S 987,7 18 0 0,9
14.12.2019 12:00:00 4,4 2,2 3,5 3,7 3,2 6,2 23 13 40 21 S 987,6 28 0 0,6
14.12.2019 11:00:00 5,7 1,4 4,9 3,9 3,0 6,2 18 10 34 18 S 987,4 57 17 0,0
14.12.2019 10:00:00 5,0 1,5 3,8 2,6 3,0 6,2 13 7 25 14 S 987,9 58 0 0,0
14.12.2019 09:00:00 4,0 1,2 2,8 2,2 3,0 6,2 12 7 22 12 S 988,4 53 0 0,0
14.12.2019 08:00:00 3,8 1,5 2,5 2,3 3,0 6,2 13 7 20 11 S 988,5 75 0 0,0
14.12.2019 07:00:00 4,1 2,1 2,1 2,6 2,9 6,2 9 5 22 12 SSW 988,7 71 0 0,0
14.12.2019 06:00:00 4,4 2,8 3,3 2,8 2,8 6,2 15 8 30 16 SSW 988,2 58 0 0,0
14.12.2019 05:00:00 4,0 2,9 3,3 2,8 2,7 6,2 18 10 41 22 SW 988,2 27 0 0,3
14.12.2019 04:00:00 4,4 3,1 3,6 2,7 2,6 6,2 19 11 36 19 SW 987,5 18 0 0,1
14.12.2019 03:00:00 4,2 2,8 3,3 2,4 2,5 6,3 15 8 28 15 SSW 987,0 26 0 0,1
14.12.2019 02:00:00 4,1 2,7 3,1 2,2 2,4 6,3 15 8 24 13 SSW 986,7 23 0 0,5
14.12.2019 01:00:00 3,9 2,6 2,9 1,9 2,3 6,3 12 7 23 12 S 986,3 16 0 0,4
14.12.2019 00:00:00 3,7 1,8 2,7 1,6 2,2 6,3 14 7 25 14 S 986,0 20 0 0,0
13.12.2019 23:00:00 2,9 1,2 2,2 1,1 2,1 6,3 12 6 24 13 S 985,8 18 0 0,0
13.12.2019 22:00:00 2,8 0,3 1,9 0,6 2,1 6,3 11 6 27 15 S 985,4 25 0 0,0
13.12.2019 21:00:00 2,4 -0,4 1,2 0,5 2,1 6,3 13 7 23 12 S 985,0 27 0 0,0
13.12.2019 20:00:00 2,0 -0,3 0,8 0,5 2,1 6,3 12 7 22 12 SSE 984,7 25 0 0,0
13.12.2019 19:00:00 1,3 -0,4 0,2 0,4 2,1 6,3 11 6 19 11 SSE 984,4 19 0 0,0
13.12.2019 18:00:00 0,5 -0,1 -0,4 0,3 2,0 6,4 12 7 22 12 SE 984,0 10 0 0,2
13.12.2019 17:00:00 0,8 0,0 0,0 0,3 2,0 6,4 13 7 22 12 SE 983,8 4,1 0 0,4
13.12.2019 16:00:00 1,3 0,0 0,5 0,2 2,0 6,4 13 7 33 18 SE 984,2 20 0 0,2
13.12.2019 15:00:00 3,2 -1,3 2,6 0,2 2,0 6,4 15 8 29 16 SSE 983,6 39 0 0,0
13.12.2019 14:00:00 3,3 -1,4 3,1 0,1 2,0 6,4 17 9 33 18 SSE 983,3 42 0 0,0
13.12.2019 13:00:00 3,5 -1,3 2,7 0,1 2,0 6,4 17 9 34 19 SSE 983,5 63 30 0,0
13.12.2019 12:00:00 3,2 -1,4 2,8 0,1 2,0 6,4 15 8 29 15 SSE 984,1 48 5 0,0
13.12.2019 11:00:00 2,5 -1,0 1,6 0,1 2,1 6,4 15 8 26 14 SE 985,0 37 0 0,0
13.12.2019 10:00:00 1,9 -1,1 1,2 0,1 2,1 6,4 13 7 25 14 SE 986,2 30 2 0,0
13.12.2019 09:00:00 1,2 -1,3 0,0 0,1 2,2 6,4 18 10 27 15 SE 986,8 25 10 0,0
13.12.2019 08:00:00 0,9 -1,2 -1,2 0,1 2,2 6,5 12 6 23 12 ESE 987,8 22 0 0,0
13.12.2019 07:00:00 0,9 -1,3 -1,3 0,2 2,3 6,5 13 7 24 13 ESE 988,9 21 0 0,0
13.12.2019 06:00:00 -0,2 -1,6 -2,3 0,2 2,4 6,5 9 5 18 10 SE 990,2 14 0 0,0
13.12.2019 05:00:00 -0,4 -1,5 -2,3 0,3 2,4 6,5 10 5 16 9 ESE 991,7 12 0 0,0
13.12.2019 04:00:00 -0,7 -1,7 -2,6 0,4 2,5 6,5 10 5 21 11 ESE 993,1 10 0 0,0
13.12.2019 03:00:00 -0,4 -1,4 -2,0 0,4 2,6 6,5 10 5 18 10 ESE 994,6 9 0 0,0
13.12.2019 02:00:00 -1,4 -1,9 -4,4 0,5 2,7 6,5 9 5 11 6 E 996,1 7 0 0,0
13.12.2019 01:00:00 -1,2 -1,7 -3,8 0,6 2,8 6,5 9 5 11 6 E 997,4 10 0 0,0
13.12.2019 00:00:00 0,6 -0,8 -1,6 0,7 2,9 6,5 8 4 15 8 SSE 998,6 15 0 0,0
12.12.2019 23:00:00 1,1 -0,7 -0,5 0,7 3,0 6,5 11 6 16 9 SSE 999,6 17 0 0,0
12.12.2019 22:00:00 1,6 -0,6 -0,3 1,1 3,1 6,6 10 5 19 10 SSE 1000,5 19 0 0,0
12.12.2019 21:00:00 2,0 -0,7 1,2 1,4 3,2 6,6 12 7 19 10 SSE 1001,2 18 0 0,0
12.12.2019 20:00:00 2,0 -0,8 1,2 1,6 3,2 6,6 11 6 19 10 SSE 1001,7 19 0 0,0
12.12.2019 19:00:00 2,0 -1,0 1,2 1,8 3,3 6,6 10 6 19 10 SSE 1002,5 21 0 0,0
12.12.2019 18:00:00 2,1 -1,1 1,4 2,0 3,4 6,6 13 7 20 11 SSE 1003,1 22 0 0,0
12.12.2019 17:00:00 2,5 -0,7 1,7 2,4 3,4 6,6 9 5 18 10 S 1003,4 23 0 0,0
12.12.2019 16:00:00 3,0 -0,3 2,2 3,0 3,4 6,6 8 5 17 9 S 1003,7 25 0 0,0
12.12.2019 15:00:00 3,8 0,1 3,5 3,6 3,3 6,6 9 5 16 8 S 1003,8 29 0 0,0
12.12.2019 14:00:00 4,1 0,5 4,1 3,8 3,1 6,7 8 4 22 12 S 1004,2 31 0 0,0
12.12.2019 13:00:00 4,7 1,5 4,9 3,7 2,8 6,7 11 6 25 13 SW 1004,6 40 0 0,0
12.12.2019 12:00:00 4,0 1,0 4,3 3,0 2,6 6,7 16 9 24 13 SW 1004,9 38 0 0,0
12.12.2019 11:00:00 3,1 0,4 3,2 2,1 2,5 6,7 - - - - - 1005,5 32 0 0,0
12.12.2019 10:00:00 2,7 0,2 2,6 1,4 2,4 6,7 13 7 21 11 SW 1005,5 30 0 0,0
12.12.2019 09:00:00 2,1 -1,4 1,7 0,8 2,4 6,7 7 4 18 10 SSW 1005,3 28 0 0,0
12.12.2019 08:00:00 1,7 -2,7 1,2 0,7 2,4 6,7 8 5 18 10 S 1005,1 33 0 0,0
12.12.2019 07:00:00 1,6 -3,4 1,0 0,7 2,4 6,7 11 6 21 12 S 1004,9 33 0 0,0
12.12.2019 06:00:00 1,6 -3,7 1,1 0,6 2,4 6,8 9 5 19 10 SSW 1004,9 38 0 0,0
12.12.2019 05:00:00 1,6 -4,0 1,0 0,6 2,5 6,8 11 6 22 12 S 1004,8 38 0 0,0
12.12.2019 04:00:00 1,8 -4,9 1,0 0,6 2,5 6,8 13 7 23 12 S 1004,8 39 0 0,0
12.12.2019 03:00:00 2,0 -5,2 1,3 0,6 2,5 6,8 11 6 26 14 S 1005,2 47 0 0,0
12.12.2019 02:00:00 2,1 -5,4 1,2 0,6 2,5 6,8 14 8 28 15 S 1005,7 46 0 0,0
12.12.2019 01:00:00 2,2 -5,3 1,5 0,6 2,5 6,8 16 8 30 16 S 1006,1 49 0 0,0
12.12.2019 00:00:00 2,1 -4,4 1,1 0,6 2,6 6,8 16 9 27 15 S 1006,6 38 0 0,0
11.12.2019 23:00:00 2,4 -4,0 1,2 0,7 2,6 6,9 15 8 27 15 S 1007,0 39 0 0,0
11.12.2019 22:00:00 2,4 -3,7 1,2 0,7 2,6 6,9 13 7 28 15 S 1007,7 45 0 0,0
11.12.2019 21:00:00 2,0 -3,3 0,9 0,7 2,7 6,9 11 6 21 11 SSE 1007,9 37 0 0,0
11.12.2019 20:00:00 2,3 -3,0 1,1 0,7 2,7 6,9 13 7 25 14 S 1008,4 35 0 0,0
11.12.2019 19:00:00 1,9 -2,7 0,7 0,7 2,8 6,9 10 5 22 12 S 1009,3 35 0 0,0
11.12.2019 18:00:00 2,0 -3,1 0,2 0,7 2,8 6,9 10 5 22 12 SSE 1009,9 35 0 0,0
11.12.2019 17:00:00 3,1 -3,5 1,7 1,1 2,8 6,9 11 6 23 13 S 1010,4 41 0 0,0
11.12.2019 16:00:00 3,5 -3,0 1,4 1,4 2,7 7,0 7 4 13 7 SSE 1010,6 43 0 0,0
11.12.2019 15:00:00 4,2 -3,1 3,2 1,1 2,5 7,0 8 4 21 11 S 1011,1 48 20 0,0
11.12.2019 14:00:00 4,8 -3,4 4,6 0,4 2,5 7,0 13 7 22 12 SSE 1011,7 51 56 0,0
11.12.2019 13:00:00 4,7 -3,4 4,7 0,2 2,5 7,0 14 8 26 14 SSE 1012,5 66 29 0,0
11.12.2019 12:00:00 4,0 -3,7 3,4 0,2 2,5 7,0 16 9 31 17 S 1014,1 49 23 0,0
11.12.2019 11:00:00 4,0 -3,4 3,8 0,1 2,6 7,0 14 8 25 13 S 1015,2 53 40 0,0
11.12.2019 10:00:00 3,2 -3,8 3,0 0,1 2,6 7,0 12 6 21 11 S 1015,9 45 56 0,0
11.12.2019 09:00:00 1,9 -3,9 0,5 0,1 2,7 7,0 12 6 23 12 S 1016,3 42 38 0,0
11.12.2019 08:00:00 0,0 -3,7 -2,5 0,1 2,8 7,0 11 6 18 10 SE 1016,5 37 0 0,0
11.12.2019 07:00:00 0,4 -3,5 -2,3 0,2 2,8 7,0 13 7 23 12 SSE 1016,6 38 0 0,0
11.12.2019 06:00:00 0,5 -3,2 -2,3 0,3 2,9 7,0 12 7 20 11 SSE 1017,3 37 0 0,0
11.12.2019 05:00:00 0,0 -3,1 -2,7 0,3 3,0 7,0 12 7 22 12 SSE 1018,3 34 0 0,0
11.12.2019 04:00:00 0,2 -2,8 -2,4 0,4 3,1 7,0 11 6 19 10 SSE 1019,4 32 0 0,0
11.12.2019 03:00:00 -0,3 -2,4 -2,9 0,4 3,2 7,0 11 6 16 9 SSE 1020,8 30 0 0,0
11.12.2019 02:00:00 -0,4 -2,4 -3,0 0,5 3,3 7,0 9 5 16 9 S 1021,7 35 0 0,0
11.12.2019 01:00:00 -0,1 -2,3 -2,4 0,6 3,4 7,0 11 6 18 10 SSE 1022,6 34 0 0,0
11.12.2019 00:00:00 -0,1 -1,4 -2,2 0,6 3,6 7,0 10 5 16 9 S 1023,5 24 0 0,0
10.12.2019 23:00:00 -0,2 -1,0 -2,7 0,7 3,7 7,0 9 5 15 8 S 1024,1 19 0 0,0
10.12.2019 22:00:00 0,0 -0,6 -2,3 0,9 3,9 7,0 9 5 15 8 S 1024,4 17 0 0,0
10.12.2019 21:00:00 -0,4 -0,8 -4,6 1,0 4,1 7,0 7 4 11 6 SSE 1024,9 13 0 0,0
10.12.2019 20:00:00 0,4 0,0 -5,1 1,2 4,3 7,0 6 3 11 6 S 1025,2 15 0 0,0
10.12.2019 19:00:00 1,4 0,3 -3,2 1,5 4,5 7,0 7 4 10 5 SSW 1025,1 21 0 0,0
10.12.2019 18:00:00 1,6 0,5 -1,6 1,8 4,8 7,0 7 4 10 6 S 1025,4 22 0 0,0
10.12.2019 17:00:00 2,5 0,7 -1,5 2,4 5,0 7,0 7 4 13 7 SSW 1025,3 25 0 0,0
10.12.2019 16:00:00 3,3 0,7 0,5 3,7 5,1 7,0 10 6 23 12 WSW 1025,1 28 24 0,0
10.12.2019 15:00:00 4,9 1,4 4,4 4,7 5,0 7,0 14 7 22 12 W 1024,8 30 49 0,0
10.12.2019 14:00:00 5,6 0,4 7,1 5,3 4,9 7,0 17 9 26 14 WNW 1024,2 37 60 0,0
10.12.2019 13:00:00 5,5 1,1 7,9 5,2 4,7 7,0 14 8 25 13 WNW 1024,2 45 60 0,0
10.12.2019 12:00:00 4,7 0,8 6,4 4,3 4,5 7,0 15 8 30 16 W 1023,8 41 55 0,0
10.12.2019 11:00:00 3,9 0,9 4,7 3,5 4,5 7,0 20 11 34 18 WNW 1023,5 31 52 0,0
10.12.2019 10:00:00 2,7 1,0 2,7 2,4 4,6 7,0 21 12 31 17 W 1022,6 26 26 0,0
10.12.2019 09:00:00 2,1 0,7 0,9 2,1 4,8 7,0 18 10 30 16 W 1021,5 25 0 0,0
10.12.2019 08:00:00 2,1 0,6 0,6 2,1 5,1 7,0 21 11 32 17 W 1020,3 25 0 0,0
10.12.2019 07:00:00 2,6 0,7 1,1 2,6 5,3 7,0 22 12 33 18 W 1019,3 28 0 0,0
10.12.2019 06:00:00 3,3 0,8 1,7 3,5 5,4 7,0 20 11 39 21 W 1017,8 29 0 0,0
10.12.2019 05:00:00 4,4 1,5 3,5 4,0 5,5 7,0 20 11 42 23 WNW 1016,8 30 0 0,0
10.12.2019 04:00:00 4,9 1,7 3,8 4,2 5,6 7,0 24 13 39 21 WNW 1015,4 31 0 0,0
10.12.2019 03:00:00 4,9 2,2 3,7 4,4 5,7 7,0 22 12 40 22 WNW 1013,9 30 0 0,0
10.12.2019 02:00:00 5,3 3,2 4,2 4,8 5,8 7,0 24 13 38 20 WNW 1012,3 32 0 0,0
10.12.2019 01:00:00 5,6 3,8 4,7 5,2 5,8 7,0 22 12 34 18 WNW 1010,4 19 0 0,1
10.12.2019 00:00:00 6,0 4,2 5,0 5,2 5,8 6,9 18 10 32 17 W 1009,0 20 0 0,0
09.12.2019 23:00:00 6,4 4,2 5,3 5,3 5,8 6,9 19 11 34 18 W 1007,7 46 0 0,2
09.12.2019 22:00:00 6,8 3,9 6,1 5,3 5,8 6,9 24 13 36 19 W 1006,5 37 0 0,0
09.12.2019 21:00:00 7,0 4,1 5,9 5,2 5,9 6,9 20 11 43 23 W 1005,1 63 0 0,0
09.12.2019 20:00:00 7,7 3,4 6,6 4,8 6,0 6,9 22 12 39 21 WSW 1003,9 65 0 0,0

tt = temperature
td = dewpoint
tt 5cm = temperature 5cm
tt -5cm = temperature -5cm
tt -20cm = temperature -20cm
tt -100cm = temperature -100cm
ff = wind speed
fx = gusts
dd = wind direction
ppp = reduced air pressure
vv = visibility
sd = sunshine duration
rr = precipitation

Next stations